This demonstration page uses our WeatherBlox Daily Observations layout. Learn more.

Left ArrowRight Arrow

41.86663, -103.66717

Hourly Observations for October 25, 2018

Temp ( °F °C ) Dew Point ( °F °C ) Humidity (%) Winds ( mph kmh ) Pressure ( in mb ) Visibility ( mi km ) Precip ( " mm )
12:53 am 00:53 Clear 44 6.7 44 6.7 100 100 E 6 9 29.89 1012 8 13 0.00 0.00
1:26 am 01:26 Mostly Clear with Mist and Fog 41 5 41 5 100 100 W 3 6 29.97 1015 2 3 0.00 0.00
1:40 am 01:40 Mostly Cloudy with Mist and Fog 43 6 43 6 100 100 WNW 3 6 29.94 1014 1 1 0.00 0.00
1:53 am 01:53 Cloudy with Mist and Fog 42 5.6 42 5.6 100 100 NW 7 11 29.89 1012 1 2 0.00 0.00
2:04 am 02:04 Cloudy with Mist and Fog 43 6 43 6 100 100 NNW 6 9 29.94 1014 2 3 0.00 0.00
2:12 am 02:12 Mostly Cloudy with Mist and Fog 45 7 45 7 100 100 NW 5 7 29.94 1014 1 2 0.00 0.00
2:20 am 02:20 Mostly Cloudy with Fog 45 7 45 7 100 100 WNW 7 11 29.94 1014 1 1 0.00 0.00
2:28 am 02:28 Mostly Cloudy with Fog 45 7 45 7 100 100 WNW 8 13 29.94 1014 0 0 0.00 0.00
2:43 am 02:43 Mostly Cloudy with Fog 45 7.2 45 7.2 100 100 WNW 10 17 29.91 1013 0 0 0.00 0.00
2:53 am 02:53 Mostly Cloudy with Fog 45 7.2 45 7.2 100 100 WNW 9 15 29.88 1012 0 0 0.00 0.00
3:25 am 03:25 Mostly Cloudy with Fog 44 6.7 44 6.7 100 100 WNW 8 13 29.94 1014 0 0 0.00 0.00
3:53 am 03:53 Mostly Cloudy with Fog 44 6.7 44 6.7 100 100 WNW 9 15 29.88 1012 0 0 0.00 0.00
4:38 am 04:38 Mostly Cloudy with Fog 43 6 43 6 100 100 WNW 9 15 29.94 1014 1 1 0.00 0.00
4:53 am 04:53 Mostly Cloudy with Mist and Fog 42 5.6 42 5.6 100 100 NW 8 13 29.90 1013 1 2 0.00 0.00
4:59 am 04:59 Mostly Cloudy with Mist and Fog 42 5.6 42 5.6 100 100 NW 8 13 29.94 1014 3 5 0.00 0.00
5:11 am 05:11 Partly Cloudy with Mist and Fog 41 5 41 5 100 100 NW 10 17 29.97 1015 6 10 0.00 0.00
5:53 am 05:53 Clear 39 3.9 39 3.9 100 100 NW 7 11 29.93 1013 9 14 0.00 0.00
6:53 am 06:53 Mostly Clear 39 3.9 39 3.9 100 100 NW 6 9 29.95 1014 10 16 0.00 0.00
7:53 am 07:53 Cloudy 41 5 40 4.4 96 96 NW 8 13 29.96 1014 10 16 0.00 0.00
8:53 am 08:53 Mostly Sunny 47 8.3 43 6.1 86 86 WNW 10 17 29.97 1015 10 16 0.00 0.00
9:53 am 09:53 Sunny 53 11.7 43 6.1 69 69 W 12 19 29.96 1015 10 16 0.00 0.00
10:53 am 10:53 Mostly Cloudy 59 15 42 5.6 54 54 W 15 24 29.94 1014 10 16 0.00 0.00
11:53 am 11:53 Cloudy 63 17.2 43 6.1 48 48 WNW 13 20 29.93 1013 10 16 0.00 0.00
12:53 pm 12:53 Sunny 68 20 43 6.1 40 40 W 13 20 29.89 1012 9 14 0.00 0.00
1:53 pm 13:53 Mostly Cloudy 68 20 38 3.3 33 33 N 12 19 29.88 1012 10 16 0.00 0.00
2:53 pm 14:53 Cloudy 67 19.4 37 2.8 33 33 NNE 14 22 29.87 1012 10 16 0.00 0.00
3:53 pm 15:53 Cloudy 67 19.4 35 1.7 31 31 NNW 10 17 29.87 1012 10 16 0.00 0.00
4:53 pm 16:53 Cloudy 66 18.9 36 2.2 33 33 N 10 17 29.89 1012 10 16 0.00 0.00
5:53 pm 17:53 Cloudy 63 17.2 37 2.8 38 38 N 8 13 29.92 1013 10 16 0.00 0.00
6:53 pm 18:53 Mostly Cloudy 59 15 38 3.3 46 46 N 3 6 29.94 1014 10 16 0.00 0.00
7:53 pm 19:53 Mostly Cloudy 57 13.9 39 3.9 51 51 Calm 29.96 1014 10 16 0.00 0.00
8:53 pm 20:53 Cloudy 54 12.2 39 3.9 57 57 SSE 5 7 29.95 1014 10 16 0.00 0.00
9:53 pm 21:53 Cloudy 50 10 41 5 71 71 NNE 3 6 29.96 1015 10 16 0.00 0.00
10:53 pm 22:53 Partly Cloudy 50 10 41 5 71 71 N 5 7 29.96 1014 10 16 0.00 0.00
11:53 pm 23:53 Mostly Cloudy 49 9.4 42 5.6 77 77 NW 5 7 29.95 1014 10 16 0.00 0.00

Powered by AerisWeather